Date,TemperatureHighF,TemperatureAvgF,TemperatureLowF,DewpointHighF,DewpointAvgF,DewpointLowF,HumidityHigh,HumidityAvg,HumidityLow,PressureMaxIn,PressureMinIn,WindSpeedMaxMPH,WindSpeedAvgMPH,GustSpeedMaxMPH,PrecipitationSumIn
2013-1-1,46,44,42,45,42,39,99,94,86,29.82,29.26,17,9,18,0.19
2013-1-2,50,47,43,50,46,43,99,99,99,30.05,29.82,12,5,16,0.33
2013-1-3,50,49,48,49,48,47,99,99,99,30.36,30.04,14,6,19,0.00
2013-1-4,49,48,47,49,48,46,99,99,99,30.41,30.33,14,4,16,0.00
2013-1-5,57,48,42,53,47,42,99,98,81,30.35,30.23,11,2,16,0.00
2013-1-6,49,47,45,49,47,44,99,99,99,30.31,30.10,8,2,9,0.00
2013-1-7,49,46,43,49,46,42,99,99,99,30.10,29.92,7,2,7,0.02
2013-1-8,50,47,42,50,46,41,99,99,99,30.03,29.89,7,2,10,0.24
2013-1-9,42,37,32,42,37,31,99,99,99,30.03,29.90,4,0,4,0.01
2013-1-10,38,36,34,38,36,34,99,99,99,29.90,29.75,3,0,5,0.00
2013-1-11,41,37,33,40,37,33,99,99,99,29.89,29.74,6,2,7,0.02
2013-1-12,40,36,29,38,35,29,99,97,86,29.91,29.70,11,3,11,0.06
2013-1-13,36,32,28,36,32,27,99,99,99,30.00,29.85,8,1,8,0.07
2013-1-14,46,36,32,45,36,32,99,98,90,29.85,29.52,13,4,15,0.18
2013-1-15,48,34,27,43,32,27,99,94,70,29.70,29.57,9,1,9,0.00
2013-1-16,35,30,26,33,29,26,99,97,88,29.81,29.65,7,2,7,0.00
2013-1-17,35,33,30,34,32,29,99,96,91,29.83,29.60,14,4,14,0.00
2013-1-18,34,32,30,32,30,28,99,95,88,29.60,29.28,14,6,19,0.00
2013-1-19,35,33,30,34,32,29,99,95,87,29.45,29.30,11,3,11,0.01
2013-1-20,36,35,34,33,31,30,90,88,84,29.43,29.21,9,3,14,0.00
2013-1-21,35,32,31,34,32,30,99,99,89,29.24,29.13,10,1,10,0.05
2013-1-22,41,34,30,39,33,29,99,96,81,29.60,29.24,7,1,8,0.06
2013-1-23,35,32,27,35,32,27,99,99,99,29.73,29.60,3,1,4,0.01
2013-1-24,42,34,28,36,32,26,99,93,72,29.93,29.73,6,2,8,0.01
2013-1-25,35,31,28,34,30,26,99,97,89,29.87,29.25,16,6,18,0.33
2013-1-26,46,40,33,45,40,32,99,98,90,29.51,28.99,15,5,17,0.66
2013-1-27,48,44,42,47,42,38,99,92,77,29.25,28.82,21,10,24,0.30
2013-1-28,48,44,41,48,43,39,99,95,86,29.37,28.96,23,10,24,0.35
2013-1-29,52,48,45,52,47,44,99,98,91,29.33,29.03,21,9,23,0.61
2013-1-30,48,45,32,46,44,32,99,97,83,29.67,29.15,30,11,30,0.94
2013-1-31,48,45,42,46,43,41,99,92,83,29.65,29.32,21,10,27,0.32
2013-2-1,49,42,38,45,41,34,99,96,85,29.58,29.23,15,6,17,0.04
2013-2-2,46,38,31,37,33,31,99,85,66,30.05,29.58,10,3,11,0.02
2013-2-3,50,43,32,49,43,32,99,99,95,30.00,29.55,15,6,18,0.08
2013-2-4,48,44,37,47,42,35,99,93,83,29.65,29.35,29,13,29,0.87
2013-2-5,43,40,35,43,38,32,99,92,80,29.36,29.04,24,13,27,0.50
2013-2-6,45,41,38,42,34,29,99,78,60,29.97,29.26,15,8,19,0.00
2013-2-7,41,38,34,40,37,33,99,97,87,29.97,29.81,11,3,11,0.04
2013-2-8,46,41,36,45,40,36,99,96,83,30.01,29.89,10,4,11,0.00
2013-2-9,46,38,36,40,38,35,99,99,92,29.99,29.60,6,2,7,0.37
2013-2-10,45,37,31,44,37,30,99,99,99,29.59,29.08,11,4,14,0.28
2013-2-11,41,36,34,35,33,30,99,87,68,29.69,29.15,11,4,13,0.00
2013-2-12,40,35,29,36,31,28,99,86,74,29.93,29.70,5,1,7,0.00
2013-2-13,40,34,31,40,33,28,99,95,82,29.93,29.51,18,7,21,0.81
2013-2-14,48,43,40,48,43,40,99,99,96,29.76,29.48,11,5,103,0.39
2013-2-15,50,43,36,49,43,36,99,98,88,29.99,29.76,13,4,14,0.00
2013-2-16,50,42,36,46,40,36,99,96,85,30.01,29.95,8,2,124,0.00
2013-2-17,51,41,35,43,37,32,99,85,59,29.97,29.87,11,3,12,0.02
2013-2-18,52,40,34,39,35,33,99,86,58,29.96,29.90,9,3,12,0.00
2013-2-19,52,38,28,42,35,28,99,91,66,29.95,29.88,6,1,6,0.00
2013-2-20,40,36,32,40,34,28,99,91,78,30.11,29.95,11,4,11,0.00
2013-2-21,44,36,32,29,26,22,87,70,49,30.12,30.07,8,4,8,0.00
2013-2-22,37,34,32,29,26,23,83,72,65,30.09,30.05,6,2,7,0.00
2013-2-23,38,35,33,38,33,29,99,92,80,30.15,30.04,7,2,10,0.00
2013-2-24,44,36,32,36,32,30,98,86,71,30.25,30.15,8,2,9,0.00
2013-2-25,48,40,33,40,36,31,97,86,73,30.38,30.25,9,3,13,0.00
2013-2-26,50,39,34,42,36,33,99,90,72,30.49,30.36,7,2,10,0.00
2013-2-27,50,37,27,42,34,27,99,90,63,30.49,30.40,7,1,7,0.00
2013-2-28,52,39,26,45,34,26,99,86,54,30.41,30.28,4,1,9,0.00
2013-3-1,52,43,32,40,36,31,97,77,52,30.34,30.28,9,2,9,0.00
2013-3-2,50,38,26,43,36,26,99,94,67,30.29,30.08,5,1,6,0.00
2013-3-3,53,41,32,44,38,31,99,89,63,30.10,29.92,8,2,8,0.00
2013-3-4,53,41,34,40,36,33,99,83,57,29.92,29.56,9,3,11,0.00
2013-3-5,58,41,30,44,37,29,99,88,59,29.56,29.40,6,2,7,0.00
2013-3-6,47,41,37,45,41,37,99,98,90,29.43,29.36,11,4,11,0.00
2013-3-7,52,45,41,50,44,41,99,96,81,29.37,29.21,11,4,12,0.14
2013-3-8,48,43,41,45,42,41,99,98,87,29.41,29.21,11,6,14,0.05
2013-3-9,42,39,36,42,39,36,99,99,97,29.58,29.40,8,3,11,0.21
2013-3-10,42,36,28,36,28,18,99,75,47,29.79,29.58,16,5,20,0.02
2013-3-11,40,30,26,28,23,17,97,75,47,29.86,29.78,16,5,21,0.00
2013-3-12,46,36,26,38,28,21,91,73,49,29.86,29.70,11,4,14,0.00
2013-3-13,49,39,29,36,30,25,97,72,47,29.83,29.68,10,2,10,0.00
2013-3-14,45,37,25,42,35,24,99,93,70,29.84,29.55,12,4,12,0.00
2013-3-15,51,42,39,48,42,39,99,97,83,29.55,29.18,13,4,13,0.20
2013-3-16,50,41,38,45,40,38,99,96,75,29.18,29.03,9,2,9,0.08
2013-3-17,50,40,35,42,38,35,99,93,67,29.03,28.97,9,3,11,0.01
2013-3-18,42,36,30,41,35,29,99,97,92,29.22,29.00,8,2,11,0.01
2013-3-19,50,39,28,46,36,28,99,89,60,29.38,29.22,8,2,9,0.04
2013-3-20,42,38,34,39,36,32,99,92,80,29.82,29.38,7,2,9,0.00
2013-3-21,43,37,30,33,31,29,99,80,61,29.85,29.69,19,6,19,0.01
2013-3-22,36,34,32,35,33,30,99,95,80,29.69,29.58,21,10,24,0.21
2013-3-23,39,34,32,34,31,28,99,90,78,29.86,29.65,17,7,21,0.19
2013-3-24,41,35,32,28,26,23,79,69,52,29.96,29.84,17,7,18,0.00
2013-3-25,44,36,33,29,27,24,79,69,50,29.97,29.92,13,6,21,0.00
2013-3-26,44,35,32,29,27,25,85,73,53,29.95,29.86,9,4,12,0.00
2013-3-27,41,34,29,33,29,27,94,80,60,29.87,29.79,11,3,12,0.00
2013-3-28,46,36,28,34,27,22,93,71,44,29.85,29.80,10,3,14,0.00
2013-3-29,50,36,24,35,25,21,99,67,35,29.81,29.67,8,2,11,0.00
2013-3-30,51,36,24,34,26,21,95,70,30,29.84,29.72,7,2,8,0.00
2013-3-31,49,36,26,32,25,21,93,67,33,29.85,29.73,12,3,12,0.00
2013-4-1,49,37,29,34,27,23,92,68,41,29.83,29.75,13,3,14,0.00
2013-4-2,50,37,26,38,27,24,99,68,41,30.02,29.83,10,2,10,0.00
2013-4-3,53,40,29,34,28,22,99,66,30,30.04,29.98,12,4,12,0.00
2013-4-4,52,39,31,34,28,17,97,69,26,30.03,29.94,16,5,18,0.00
2013-4-5,50,40,34,37,31,25,99,72,45,30.08,29.94,11,4,17,0.00
2013-4-6,49,39,27,36,29,25,97,71,43,30.14,30.07,9,2,11,0.00
2013-4-7,55,41,27,38,30,22,99,69,30,30.07,29.72,10,2,10,0.00
2013-4-8,51,42,36,35,31,24,92,68,35,29.72,29.43,11,5,14,0.00
2013-4-9,54,41,34,34,31,24,90,69,35,29.47,29.35,12,5,14,0.00
2013-4-10,57,43,29,37,32,29,99,70,40,29.50,29.33,7,2,10,0.00
2013-4-11,45,42,37,43,39,36,99,90,75,29.34,29.17,11,4,12,0.02
2013-4-12,56,45,40,47,42,40,99,92,63,29.49,29.13,9,4,11,0.00
2013-4-13,58,48,37,53,45,37,99,91,52,29.58,29.40,14,4,15,0.08
2013-4-14,58,55,51,57,52,47,99,91,72,29.51,29.36,18,9,21,0.04
2013-4-15,61,54,49,51,48,45,97,80,59,29.71,29.50,15,8,19,0.00
2013-4-16,57,52,47,50,47,44,99,84,67,29.77,29.45,21,9,21,0.04
2013-4-17,59,51,45,56,48,43,99,91,78,29.76,29.21,23,9,27,0.21
2013-4-18,54,48,44,48,46,43,99,90,71,29.77,29.21,28,12,40,1.06
2013-4-19,53,47,41,45,42,39,99,86,62,30.31,29.77,14,4,14,0.00
2013-4-20,62,48,35,42,38,32,99,73,34,30.33,29.44,10,3,11,0.00
2013-4-21,53,47,42,49,43,37,99,88,71,30.09,29.75,12,5,15,0.15
2013-4-22,54,48,44,53,47,44,99,96,73,29.77,29.61,16,6,19,0.00
2013-4-23,57,50,46,51,48,45,99,92,78,29.99,29.70,16,6,17,0.00
2013-4-24,57,51,47,54,50,46,99,96,86,30.07,29.89,15,6,20,0.00
2013-4-25,52,47,44,50,46,44,99,98,77,30.06,29.90,11,3,12,0.13
2013-4-26,51,45,38,44,41,36,99,86,66,29.91,29.71,15,5,17,0.00
2013-4-27,56,44,33,42,37,32,99,77,42,29.93,29.76,16,4,16,0.01
2013-4-28,53,46,43,50,44,39,99,93,82,29.90,29.57,21,8,21,0.02
2013-4-29,53,47,44,46,43,40,96,84,67,29.99,29.61,20,10,22,0.01
2013-4-30,56,49,42,44,41,39,97,76,56,30.15,29.99,9,4,12,0.00
2013-5-1,56,48,39,49,42,39,99,81,62,30.12,30.04,13,3,13,0.00
2013-5-2,65,52,37,49,36,17,99,62,17,30.10,29.96,7,2,8,0.00
2013-5-3,69,53,49,61,48,40,98,83,67,29.96,29.71,18,6,20,0.00
2013-5-4,56,51,47,51,48,44,99,90,64,29.47,29.24,12,6,12,0.11
2013-5-5,63,57,49,55,51,47,99,81,66,29.95,29.47,13,6,13,0.00
2013-5-6,66,55,45,49,48,45,99,78,53,29.95,29.85,8,2,11,0.00
2013-5-7,78,62,44,53,47,42,99,61,32,29.89,29.62,11,2,12,0.02
2013-5-8,65,57,49,57,49,42,99,75,57,29.61,29.33,17,6,20,0.00
2013-5-9,54,49,44,51,44,39,99,85,59,29.46,29.12,19,8,22,0.50
2013-5-10,58,50,48,54,49,45,99,97,83,29.57,29.20,18,8,21,0.07
2013-5-11,55,48,44,51,46,39,99,91,70,29.63,29.47,18,8,19,0.19
2013-5-12,53,49,46,51,48,45,99,96,78,29.73,29.54,17,7,17,0.19
2013-5-13,54,48,42,48,42,38,99,80,58,29.59,29.47,22,10,22,0.08
2013-5-14,56,49,44,46,40,36,99,73,52,29.47,29.16,17,6,18,0.01
2013-5-15,56,48,43,46,44,38,99,86,62,29.31,29.03,14,7,21,0.07
2013-5-16,62,51,42,49,43,38,99,75,44,29.42,29.30,7,2,8,0.05
2013-5-17,64,53,45,49,45,42,99,77,47,29.65,29.41,8,3,11,0.04
2013-5-18,50,48,47,49,48,47,99,99,99,29.65,29.50,13,3,13,0.14
2013-5-19,62,54,48,57,52,47,99,92,71,29.78,29.60,11,2,11,0.00
2013-5-20,62,55,51,59,54,51,99,97,87,29.81,29.73,9,4,10,0.01
2013-5-21,60,53,50,56,52,49,99,95,77,29.91,29.80,14,4,14,0.02
2013-5-22,58,52,45,51,46,40,99,82,62,29.94,29.86,22,7,22,0.01
2013-5-23,55,48,43,44,38,35,93,71,50,29.87,29.71,17,9,19,0.02
2013-5-24,58,49,44,44,39,35,94,69,48,30.01,29.66,18,8,21,0.00
2013-5-25,62,52,38,51,42,34,99,74,38,30.03,29.99,9,2,11,0.00
2013-5-26,63,52,39,53,47,39,99,83,63,29.99,29.70,8,3,9,0.00
2013-5-27,57,50,43,51,47,42,99,93,63,29.69,29.32,11,5,12,0.32
2013-5-28,54,50,46,53,50,45,99,97,80,29.43,29.35,8,3,11,0.24
2013-5-29,65,56,46,58,52,43,99,89,72,29.68,29.43,11,4,14,0.00
2013-5-30,68,58,51,58,54,51,99,89,68,29.90,29.65,10,4,12,0.05
2013-5-31,63,55,48,57,52,47,99,89,74,30.01,29.88,11,4,12,0.00
2013-6-1,61,54,48,53,50,47,99,86,66,30.16,30.01,12,5,13,0.00
2013-6-2,62,54,48,52,49,44,99,82,60,30.30,30.15,11,4,11,0.00
2013-6-3,69,59,44,58,51,44,99,78,52,30.33,30.26,8,2,8,0.00
2013-6-4,78,64,50,55,51,47,99,65,38,30.27,30.09,8,2,8,0.00
2013-6-5,71,60,48,56,52,47,99,76,55,30.09,29.93,7,2,9,0.00
2013-6-6,72,61,49,60,53,48,99,76,55,30.07,29.99,8,3,9,0.00
2013-6-7,76,64,50,56,53,48,99,70,45,30.10,30.03,9,3,12,0.00
2013-6-8,74,63,49,54,50,48,98,66,41,30.09,29.91,8,3,10,0.00
2013-6-9,74,62,48,56,51,47,99,70,41,29.93,29.77,8,2,9,0.00
2013-6-10,72,59,48,55,50,46,99,72,46,29.81,29.69,9,3,11,0.00
2013-6-11,72,58,48,60,53,45,99,84,67,29.71,29.54,14,4,15,0.01
2013-6-12,63,58,56,62,58,56,99,99,90,29.54,29.40,11,4,14,0.50
2013-6-13,61,56,54,58,55,54,99,98,85,29.71,29.36,14,5,15,0.14
2013-6-14,66,57,52,64,56,52,99,96,74,29.72,29.54,12,4,12,0.38
2013-6-15,65,57,50,56,52,50,99,87,62,29.49,29.34,14,7,15,0.05
2013-6-16,69,59,53,57,54,50,99,83,55,29.78,29.49,14,4,16,0.00
2013-6-17,74,63,56,59,55,52,99,77,51,29.84,29.76,8,2,9,0.00
2013-6-18,77,64,51,59,54,50,99,73,47,29.83,29.74,6,2,9,0.00
2013-6-19,68,61,52,60,55,50,99,83,56,29.86,29.76,11,3,12,0.00
2013-6-20,72,61,46,63,56,46,99,85,58,29.85,29.58,10,2,11,0.01
2013-6-21,71,62,55,62,58,53,99,90,62,29.63,29.50,10,3,24,0.01
2013-6-22,62,56,51,61,55,51,99,95,79,29.50,29.25,17,6,17,0.33
2013-6-23,60,56,54,59,55,52,99,97,92,29.81,29.28,21,10,24,0.27
2013-6-24,63,56,53,53,51,48,97,83,62,30.11,29.81,13,6,18,0.00
2013-6-25,68,61,50,57,53,47,98,77,52,30.25,30.10,8,2,9,0.00
2013-6-26,66,60,54,59,54,51,99,84,60,30.27,30.22,11,4,14,0.00
2013-6-27,60,55,53,56,54,52,99,95,78,30.23,29.97,12,5,13,0.33
2013-6-28,61,56,50,61,56,50,99,99,92,29.98,29.83,17,6,17,0.28
2013-6-29,65,58,54,60,55,50,99,90,70,30.04,29.92,13,4,13,0.00
2013-6-30,71,61,57,62,59,56,99,93,69,30.01,29.76,14,6,16,0.00
2013-7-1,64,58,54,57,53,48,98,83,65,29.80,29.75,14,7,16,0.00
2013-7-2,59,56,53,58,55,53,99,96,82,29.75,29.30,12,4,13,0.14
2013-7-3,65,59,55,62,58,55,99,97,85,29.73,29.30,12,4,12,0.11
2013-7-4,69,62,57,66,60,57,99,92,75,30.05,29.67,14,6,17,0.01
2013-7-5,73,63,56,58,56,54,99,81,56,30.23,30.04,9,3,11,0.00
2013-7-6,70,63,53,64,58,53,99,85,66,30.28,30.17,8,2,8,0.00
2013-7-7,75,66,53,66,61,53,99,84,64,30.36,30.28,8,2,9,0.00
2013-7-8,83,71,58,68,63,58,99,78,47,30.39,30.29,6,2,7,0.00
2013-7-9,79,70,57,66,63,57,99,79,53,30.30,30.11,8,2,10,0.00
2013-7-10,84,70,59,69,64,58,99,83,58,30.15,30.10,6,2,8,0.00
2013-7-11,76,65,53,65,59,52,99,84,59,30.15,30.06,6,2,9,0.00
2013-7-12,79,68,57,69,63,56,99,85,57,30.09,30.03,8,2,8,0.00
2013-7-13,63,62,61,63,62,60,99,99,99,30.07,30.05,2,1,3,0.00
2013-7-14,71,64,56,64,60,56,99,87,71,30.10,30.03,8,3,8,0.00
2013-7-15,71,62,54,68,60,53,99,94,72,30.06,30.03,8,2,8,0.00
2013-7-16,74,68,57,68,63,57,99,83,68,30.06,30.02,8,3,10,0.00
2013-7-17,81,70,60,69,63,60,99,82,56,30.13,30.05,10,3,12,0.00
2013-7-18,84,72,57,68,64,56,99,78,51,30.16,30.10,10,2,10,0.00
2013-7-19,88,76,62,70,66,62,99,74,48,30.13,30.04,10,2,10,0.00
2013-7-20,81,71,59,67,63,59,99,79,59,30.11,30.01,8,3,9,0.00
2013-7-21,72,66,61,63,61,59,99,87,67,30.04,29.88,10,3,14,0.00
2013-7-22,86,71,58,72,66,58,99,84,62,29.89,29.71,8,3,10,0.00
2013-7-23,78,68,64,74,67,63,99,97,80,29.71,29.65,8,2,8,0.09
2013-7-24,81,69,60,68,64,60,99,84,59,29.71,29.65,7,2,8,0.00
2013-7-25,77,68,61,71,65,60,99,92,72,29.67,29.58,10,3,12,0.37
2013-7-26,77,68,56,67,62,56,99,84,65,29.69,29.65,6,2,9,0.00
2013-7-27,84,69,56,68,63,56,99,82,51,29.66,29.40,11,2,11,0.11
2013-7-28,79,65,58,69,62,58,99,93,65,29.45,29.33,11,4,14,0.67
2013-7-29,77,66,61,69,63,60,99,91,68,29.62,29.42,14,5,15,0.01
2013-7-30,75,67,60,63,61,57,99,83,60,29.65,29.60,9,4,11,0.01
2013-7-31,70,64,61,64,62,60,99,94,71,29.72,29.58,9,3,9,0.34
2013-8-1,84,69,63,75,67,63,99,93,68,29.59,29.40,11,4,12,0.00
2013-8-2,80,69,61,70,64,60,99,84,58,29.49,29.39,11,4,12,0.00
2013-8-3,75,66,61,62,60,57,99,81,55,29.77,29.47,14,5,16,0.00
2013-8-4,78,65,58,64,62,58,99,90,52,29.77,29.67,11,4,14,0.11
2013-8-5,64,61,59,63,60,56,99,97,84,29.71,29.46,13,4,14,0.77
2013-8-6,76,63,54,57,53,49,94,71,44,29.82,29.71,9,3,9,0.01
2013-8-7,78,64,51,59,55,51,99,75,41,29.86,29.75,7,2,8,0.00
2013-8-8,78,64,51,64,57,51,99,82,53,29.89,29.77,6,2,8,0.04
2013-8-9,69,62,58,63,59,56,99,89,73,29.97,29.73,14,5,16,0.07
2013-8-10,70,63,58,62,56,46,99,79,50,29.98,29.83,11,4,11,0.00
2013-8-11,66,61,58,62,57,54,99,87,70,29.84,29.76,14,8,17,0.01
2013-8-12,66,60,58,58,56,53,95,84,66,29.89,29.74,16,8,17,0.00
2013-8-13,69,61,57,61,57,54,99,86,67,29.99,29.88,9,4,11,0.00
2013-8-14,74,65,57,67,61,57,99,88,62,29.98,29.81,8,3,11,0.01
2013-8-15,76,66,62,72,65,62,99,98,85,29.81,29.62,11,4,11,0.17
2013-8-16,73,65,59,64,62,59,99,90,69,29.74,29.59,13,4,13,0.08
2013-8-17,65,61,58,64,61,58,99,98,91,29.72,29.30,16,5,17,0.41
2013-8-18,70,62,58,60,58,53,99,86,61,29.67,29.37,14,7,17,0.01
2013-8-19,69,62,57,62,58,51,99,86,71,30.04,29.67,11,5,14,0.00
2013-8-20,75,65,60,65,61,59,99,89,65,30.12,30.04,9,4,10,0.00
2013-8-21,72,63,57,71,62,57,99,98,88,30.04,29.90,11,3,12,0.13
2013-8-22,79,67,60,71,64,60,99,91,68,29.91,29.78,5,1,6,0.00
2013-8-23,75,66,59,69,64,59,99,95,79,29.79,29.67,9,3,11,0.07
2013-8-24,71,63,60,66,60,53,99,89,63,29.75,29.68,11,4,13,0.00
2013-8-25,58,58,58,55,55,55,89,89,89,29.76,29.76,2,2,2,0.00
2013-8-26,75,66,61,67,64,60,99,92,73,29.92,29.89,7,2,8,0.00
2013-8-27,72,63,55,68,61,55,99,93,75,29.98,29.88,10,3,12,0.00
2013-8-28,68,61,58,60,57,52,99,86,65,30.04,29.96,10,3,11,0.00
2013-8-29,74,64,58,70,63,57,99,98,83,29.97,29.88,11,4,12,0.01
2013-8-30,70,64,58,70,63,53,99,97,81,29.95,29.78,12,5,16,0.00
2013-8-31,66,60,56,54,50,44,84,71,59,30.19,29.96,14,5,19,0.00
2013-9-1,61,59,58,60,55,50,99,86,74,30.20,30.09,17,8,18,0.00
2013-9-2,70,63,60,67,62,58,99,97,87,30.12,30.06,17,9,20,0.00
2013-9-3,74,64,60,69,63,59,99,95,76,30.14,30.04,8,3,11,0.00
2013-9-4,80,64,55,67,59,51,99,85,51,30.04,29.77,6,1,9,0.00
2013-9-5,69,61,54,66,57,50,99,88,72,29.76,29.65,11,3,11,0.00
2013-9-6,60,54,49,56,52,49,99,96,76,29.66,29.54,8,3,14,0.44
2013-9-7,61,52,46,58,51,46,99,98,81,29.76,29.51,14,4,14,0.28
2013-9-8,64,52,44,60,50,44,99,95,69,29.79,29.75,8,3,9,0.38
2013-9-9,66,55,48,63,53,47,99,93,76,29.93,29.76,10,3,11,0.15
2013-9-10,66,58,48,59,54,47,99,89,64,30.03,29.93,17,6,17,0.01
2013-9-11,58,57,54,58,56,54,99,99,94,30.03,29.89,8,3,11,0.19
2013-9-12,71,60,54,69,60,54,99,98,84,29.90,29.78,12,2,13,0.20
2013-9-13,61,57,54,58,52,48,99,85,73,29.89,29.80,10,4,11,0.00
2013-9-14,64,57,51,60,51,48,99,82,57,29.88,29.78,12,3,12,0.00
2013-9-15,61,56,51,60,52,42,99,88,60,29.83,29.20,22,8,24,0.26
2013-9-16,57,52,49,52,47,43,97,82,70,29.32,29.23,26,13,29,0.27
2013-9-17,56,52,49,52,49,46,99,88,75,29.32,29.17,21,7,24,0.05
2013-9-18,60,53,49,56,51,48,99,92,72,29.61,29.23,17,5,17,0.18
2013-9-19,63,56,49,62,54,46,99,92,78,29.63,29.38,19,7,21,0.24
2013-9-20,62,57,53,57,52,48,99,84,64,29.95,29.62,9,4,11,0.00
2013-9-21,70,58,51,68,58,51,99,98,84,30.03,29.91,8,2,9,0.00
2013-9-22,69,61,52,67,61,52,99,98,88,30.15,30.02,9,3,10,0.00
2013-9-23,63,58,51,63,58,50,99,99,99,30.12,29.89,4,1,5,0.00
2013-9-24,72,62,58,66,60,58,99,96,78,29.90,29.71,4,2,6,0.00
2013-9-25,67,60,54,66,59,54,99,99,98,29.76,29.65,8,1,8,0.00
2013-9-26,66,58,52,56,54,51,99,87,68,29.87,29.76,8,3,11,0.00
2013-9-27,72,61,54,58,55,52,99,83,51,29.85,29.72,11,3,13,0.00
2013-9-28,71,58,48,58,53,48,99,85,60,29.72,29.59,11,3,11,0.00
2013-9-29,70,58,50,56,53,50,99,84,55,29.65,29.58,9,3,11,0.00
2013-9-30,67,58,52,59,55,51,99,90,71,29.62,29.53,14,4,14,0.00
2013-10-1,64,57,51,57,54,51,99,91,73,29.62,29.56,14,5,14,0.00
2013-10-2,63,58,45,62,58,44,99,97,86,29.58,29.53,9,4,11,0.01
2013-10-3,68,62,60,68,62,60,99,99,98,29.57,29.33,12,4,13,0.01
2013-10-4,64,60,58,64,60,58,99,99,99,29.69,29.34,10,4,11,0.01
2013-10-5,67,59,54,63,58,54,99,96,83,30.00,29.69,9,3,10,0.00
2013-10-6,70,60,48,63,58,48,99,94,73,30.02,29.97,10,3,10,0.00
2013-10-7,65,61,60,64,61,59,99,99,93,30.00,29.93,10,3,10,0.02
2013-10-8,62,59,56,62,59,55,99,98,87,30.04,29.91,11,4,12,0.08
2013-10-9,58,54,49,56,49,40,99,84,60,30.03,29.83,25,8,27,0.00
2013-10-10,57,49,45,42,38,34,79,66,53,30.12,29.90,15,6,18,0.00
2013-10-11,61,52,46,53,48,41,99,86,69,30.18,30.08,12,5,14,0.00
2013-10-12,59,54,48,55,52,46,99,92,82,30.15,29.93,12,4,12,0.00
2013-10-13,55,52,50,54,50,47,99,93,79,29.94,29.70,8,3,11,0.00
2013-10-14,59,52,49,55,50,47,99,93,81,29.71,29.60,11,4,15,0.00
2013-10-15,66,53,45,58,51,45,99,93,71,29.76,29.60,7,2,8,0.00
2013-10-16,54,49,44,54,49,44,99,99,97,29.76,29.21,22,6,25,0.45
2013-10-17,64,56,50,62,55,50,99,98,87,29.75,29.46,15,4,17,0.01
2013-10-18,57,54,49,57,53,48,99,99,99,29.76,29.45,11,4,14,0.00
2013-10-19,69,56,51,67,56,51,99,99,87,29.44,29.28,11,4,14,0.01
2013-10-20,60,54,51,59,54,51,99,99,99,29.36,29.24,11,4,11,0.00
2013-10-21,63,57,50,63,56,50,99,99,99,29.38,29.15,12,4,14,0.00
2013-10-22,62,59,56,62,59,56,99,99,99,29.15,28.93,10,5,14,0.00
2013-10-23,58,54,52,58,52,45,99,92,74,29.53,28.84,21,8,22,0.00
2013-10-24,66,54,46,57,51,45,99,87,66,29.71,29.53,13,3,16,0.00
2013-10-25,67,57,53,65,56,52,99,98,83,29.56,29.18,10,4,14,0.00
2013-10-26,60,55,51,60,55,51,99,98,86,29.31,29.09,16,4,16,0.00
2013-10-27,61,54,49,58,53,49,99,97,85,29.09,28.88,20,7,24,0.00
2013-10-28,55,52,49,54,50,47,99,95,82,29.23,28.74,21,8,21,0.00
2013-10-29,53,51,47,51,48,43,99,90,76,29.77,29.23,19,8,19,0.00
2013-10-30,55,52,48,54,49,44,99,92,78,29.81,29.60,14,5,16,0.00
2013-10-31,60,52,49,58,52,49,99,98,86,29.74,29.55,14,4,17,0.00
2013-11-1,53,49,42,52,48,42,99,97,81,29.58,29.39,15,3,18,0.00
2013-11-2,54,46,38,54,45,38,99,98,86,29.40,28.77,27,7,32,2.62
2013-11-3,52,47,35,46,42,35,99,83,70,29.22,29.01,27,9,30,0.56
2013-11-4,55,44,33,48,42,33,99,91,67,29.21,29.01,9,2,11,0.04
2013-11-5,52,46,40,51,45,39,99,94,79,29.17,28.92,15,6,21,0.18
2013-11-6,52,49,47,49,46,44,99,91,80,29.28,29.15,17,5,18,0.21
2013-11-7,54,50,46,49,45,40,99,84,69,29.43,29.28,18,6,18,0.02
2013-11-8,50,47,42,50,46,41,99,97,86,29.43,29.35,11,4,14,0.07
2013-11-9,52,45,35,44,41,35,99,87,70,29.44,29.35,14,5,15,0.25
2013-11-10,57,44,34,46,40,34,99,86,57,29.97,29.44,11,3,12,0.00
2013-11-11,54,49,42,54,48,42,99,99,98,29.94,29.74,12,4,14,0.14
2013-11-12,55,50,48,51,48,45,99,92,76,30.29,29.93,10,5,11,0.01
2013-11-13,53,49,47,51,48,46,99,97,81,30.30,29.81,15,6,20,0.06
2013-11-14,53,47,44,50,43,39,99,86,74,30.32,29.81,19,8,21,0.07
2013-11-15,53,47,36,51,46,36,99,97,85,30.35,30.27,7,2,9,0.00
2013-11-16,53,51,50,52,51,49,99,99,95,30.28,30.17,12,4,12,0.02
2013-11-17,52,50,47,52,50,47,99,99,99,30.17,29.77,10,2,10,0.05
2013-11-18,49,46,40,49,45,38,99,97,82,29.77,29.59,11,4,13,0.17
2013-11-19,46,41,36,44,35,27,99,80,54,29.87,29.61,14,4,19,0.05
2013-11-20,49,45,42,47,40,35,99,83,66,29.68,29.24,22,11,29,0.40
2013-11-21,48,43,39,44,40,36,99,89,75,29.88,29.40,17,5,19,0.00
2013-11-22,54,40,31,43,38,31,99,92,63,30.07,29.87,6,1,8,0.00
2013-11-23,45,36,27,43,35,27,99,96,84,30.22,30.07,4,0,4,0.00
2013-11-24,48,41,33,44,40,33,99,94,78,30.48,30.21,7,1,9,0.08
2013-11-25,55,39,30,50,37,29,99,92,54,30.55,30.47,3,0,4,0.00
2013-11-26,50,45,38,49,45,38,99,98,81,30.53,30.38,11,3,11,0.00
2013-11-27,51,49,47,50,49,46,99,99,99,30.38,30.33,13,4,13,0.00
2013-11-28,51,48,47,50,48,46,99,97,89,30.41,30.29,7,1,8,0.00
2013-11-29,50,47,44,49,46,40,99,94,79,30.29,30.00,18,9,23,0.22
2013-11-30,56,46,39,48,42,36,99,88,60,30.26,30.07,13,4,17,0.00
2013-12-1,53,49,47,53,48,47,99,99,99,30.40,30.23,11,2,12,0.00
2013-12-2,48,46,45,47,45,43,99,96,89,30.40,30.23,8,3,8,0.00
2013-12-3,51,48,46,50,47,44,99,98,90,30.24,30.01,11,4,11,0.00
2013-12-4,50,46,42,49,42,39,99,87,69,30.23,30.00,16,6,17,0.05
2013-12-5,50,45,37,49,40,28,99,85,57,30.15,29.65,28,13,39,1.84
2013-12-6,48,42,37,47,41,31,99,97,66,30.15,30.02,16,4,18,0.14
2013-12-7,51,48,47,51,47,46,99,99,99,30.07,29.92,14,6,15,0.05
2013-12-8,53,50,48,53,49,47,99,99,99,29.97,29.87,17,8,21,0.02
2013-12-9,54,50,42,54,49,42,99,98,92,30.10,29.97,14,5,14,0.00
2013-12-10,53,46,42,48,45,42,99,97,81,30.15,30.07,9,4,11,0.00
2013-12-11,46,42,39,46,42,39,99,99,93,30.15,29.96,11,5,13,0.00
2013-12-12,51,47,39,51,46,39,99,98,95,29.96,29.81,11,4,11,0.04
2013-12-13,54,50,46,54,50,42,99,98,85,29.82,29.62,14,6,16,0.07
2013-12-14,54,48,40,52,46,39,99,93,65,29.88,29.50,24,9,25,0.09
2013-12-15,54,48,41,53,48,41,99,97,88,29.82,29.47,17,5,21,0.20
2013-12-16,51,47,43,51,46,42,99,98,89,29.87,29.43,13,5,17,0.08
2013-12-17,48,41,36,45,40,36,99,97,79,30.00,29.69,9,3,11,0.01
2013-12-18,52,45,37,52,44,37,99,98,81,29.69,28.74,21,8,27,0.44
2013-12-19,46,43,39,42,39,34,99,86,65,29.47,28.90,22,9,24,0.09
2013-12-20,51,47,42,51,45,38,99,95,80,29.73,29.43,19,10,22,0.19
2013-12-21,53,49,44,52,48,43,99,96,76,29.51,29.14,20,9,26,0.20
2013-12-22,48,44,40,44,39,33,99,82,67,29.51,29.28,23,10,24,0.05
2013-12-23,51,45,38,51,45,36,99,98,77,29.50,28.24,22,8,22,0.33
2013-12-24,49,44,37,49,39,32,99,83,63,28.54,28.23,23,11,27,0.06
2013-12-25,48,39,33,44,38,33,99,98,85,28.96,28.53,17,3,18,0.08
2013-12-26,43,37,31,42,37,31,99,99,99,29.15,28.53,23,4,23,0.18
2013-12-27,49,47,43,47,43,39,99,86,77,28.84,28.31,30,15,37,1.19
2013-12-28,47,44,42,44,42,39,99,93,81,29.43,28.84,19,8,19,0.18
2013-12-29,49,44,42,43,41,38,99,90,75,29.71,29.42,16,7,16,0.05
2013-12-30,51,46,40,51,46,40,99,99,99,29.51,29.03,24,9,24,0.52
2013-12-31,47,43,40,47,43,40,99,99,95,29.46,29.12,17,6,17,0.33
2014-1-1,50,44,39,50,44,39,99,99,99,29.17,28.57,17,6,17,0.40
2014-1-2,51,46,44,48,45,43,99,96,80,29.05,28.69,17,6,17,0.21